Wind_Speed
40 42 44 39 39 39 36 41 35 31 37 41 33 35 33 33 31 27 26 29 34 38 29 24 33 36 39 41 42 43 42 43 43 41 41 41 35 31 37 39 39 50 41 46
42 43 38 39 41 45 42 45 40 40 41 45 37 38 37 34 36 32 31 34 29 30 33 29 33 37 40 41 43 43 44 45 45 45 44 38 37 33 34 36 38 38 31 23
36 36 39 42 44 46 42 42 41 42 41 46 40 40 41 36 40 40 34 36 32 33 33 32 34 36 38 40 44 45 45 44 43 43 42 39 41 40 38 34 39 34 25 21
35 33 38 41 43 44 45 42 42 42 43 43 36 39 37 36 46 43 42 39 38 34 36 35 35 35 36 38 41 45 45 45 45 45 44 41 42 42 40 37 46 41 39 35
31 31 34 34 40 39 41 38 34 42 41 40 34 40 23 31 42 50 44 44 41 39 38 38 38 35 36 38 39 41 44 47 48 49 48 46 44 45 44 44 44 46 46 46
30 23 32 29 32 36 38 39 39 35 35 37 40 29 23 27 40 48 53 43 42 43 41 41 41 38 37 38 38 39 42 44 46 48 49 49 50 48 49 47 46 46 45 45
26 27 36 40 37 36 39 38 33 30 30 38 28 30 27 36 44 51 53 43 42 43 45 45 42 41 40 41 41 41 41 41 44 45 46 49 51 52 52 52 49 49 50 49
23 26 30 41 34 30 24 25 28 29 29 27 26 31 40 45 46 50 51 52 45 44 46 46 44 43 43 42 43 43 43 43 44 45 46 47 46 48 50 51 52 51 51 51
25 31 40 43 32 28 29 28 24 38 39 26 21 28 39 42 45 50 56 57 51 46 46 47 48 44 45 45 45 46 47 47 48 48 48 50 50 49 49 50 48 50 48 49
31 36 35 41 39 35 33 28 31 33 39 39 35 26 36 42 43 51 54 52 48 43 45 47 49 49 49 49 50 48 48 49 50 51 53 54 54 54 54 54 53 54 53 53
34 37 35 41 40 31 29 33 35 33 36 30 35 44 43 31 26 27 38 37 41 42 46 46 47 48 49 52 52 51 50 52 53 54 55 56 57 60 59 59 58 57 56 56
33 37 38 37 39 38 37 36 28 34 32 35 35 33 39 42 44 50 34 26 36 36 38 42 43 46 48 50 52 54 55 58 58 57 59 60 61 62 62 64 63 61 60 59
26 25 28 27 31 40 41 43 45 47 42 46 42 37 39 41 47 48 50 50 48 46 46 47 47 49 50 51 51 52 53 55 55 59 62 62 63 65 65 65 66 67 66 64
23 23 24 24 24 29 32 34 33 38 42 48 48 41 44 47 44 46 50 51 49 48 48 49 48 51 52 53 53 54 55 57 58 58 60 65 65 66 67 68 67 68 69 69
25 23 26 29 31 37 38 38 38 35 34 35 32 34 40 46 46 54 55 53 54 54 55 57 56 56 57 57 56 57 57 57 58 59 61 62 62 64 68 69 68 68 67 68
25 21 23 26 28 32 33 34 33 35 38 38 38 42 43 47 52 50 50 53 53 53 53 52 52 52 52 53 54 56 58 59 58 59 64 63 63 60 62 64 69 69 64 66
24 22 23 24 25 29 27 25 33 34 33 31 34 32 42 44 44 38 34 31 30 30 28 28 29 29 30 31 34 37 42 50 55 58 61 69 70 69 66 66 67 68 64 63
23 23 23 26 24 23 22 28 26 27 26 25 24 26 23 24 23 22 24 25 26 29 31 33 35 36 36 37 38 38 38 39 39 39 45 56 66 71 75 73 71 71 68 61
20 22 23 22 21 17 14 18 13 14 17 18 19 23 23 22 22 27 27 29 29 32 33 34 35 36 37 38 40 41 41 41 41 43 44 44 43 52 65 70 75 77 71 69
19 19 22 21 16 13 14 17 14 13 12 18 18 22 24 25 26 30 31 28 29 29 31 31 33 33 34 35 35 37 39 41 44 45 47 47 47 46 44 54 62 70 87 75
16 18 17 17 17 16 20 14 15 14 17 18 21 25 28 29 30 29 28 30 32 33 34 36 38 39 41 43 44 44 43 42 43 46 48 48 50 50 48 46 44 45 52 63
18 15 12 15 17 15 16 16 17 17 19 22 24 25 27 27 26 28 30 33 36 39 41 41 42 44 46 47 49 49 48 47 46 45 47 50 53 53 51 49 46 44 42 44
13 13 13 13 16 16 17 17 17 19 22 23 24 25 24 25 27 31 35 39 40 40 40 42 41 39 39 39 39 42 41 40 41 41 41 44 47 47 50 51 50 46 44 43
17 21 17 19 21 20 18 18 19 20 21 23 23 23 27 29 32 35 37 38 40 41 39 39 38 37 35 33 33 33 34 35 37 40 42 43 44 45 43 45 49 49 49 47
23 18 22 20 22 20 18 18 16 17 20 23 25 28 32 33 34 36 36 38 38 35 36 35 35 32 30 30 31 32 34 34 35 35 38 42 44 44 42 41 42 47 49 48
20 21 20 19 19 17 18 14 18 20 23 26 28 29 33 35 35 35 36 35 35 34 33 32 31 30 29 29 31 31 30 28 28 30 31 29 29 35 37 39 40 43 45 43
Wind_Direction
258 257 257 257 255 253 246 251 252 253 256 261 257 259 257 261 261 257 252 250 249 250 260 254 250 250 252 252 250 253 255 256 259 266 270 275 273 271 268 270 277 273 285 247
255 253 255 252 250 250 247 254 253 254 256 261 260 260 257 258 261 256 250 251 256 258 256 251 246 250 251 252 254 254 255 255 258 261 265 268 266 264 265 276 275 284 293 263
255 258 249 247 248 249 250 250 250 251 256 256 259 259 261 258 256 257 256 256 254 253 257 255 249 244 246 250 252 254 254 256 257 258 260 262 263 265 269 277 275 278 279 229
255 251 249 249 248 251 249 251 249 250 250 259 266 257 266 262 258 257 256 255 254 251 250 249 252 252 248 246 248 251 251 253 253 254 256 258 257 263 265 263 270 265 266 263
256 251 249 249 250 250 253 244 252 248 250 249 248 257 259 257 265 257 252 256 257 252 250 250 249 249 251 251 249 248 249 248 248 249 253 254 252 257 260 264 263 269 277 282
259 240 248 246 249 245 243 249 247 253 251 250 250 240 252 241 261 265 255 256 259 260 257 251 250 250 249 252 252 249 249 250 248 247 248 248 249 251 253 258 263 266 269 274
263 247 253 254 257 259 256 253 250 253 249 255 249 245 238 232 232 251 262 258 255 257 260 259 256 253 247 247 251 254 252 250 250 248 246 247 247 249 251 256 258 261 265 267
243 248 248 266 251 246 249 252 245 246 246 253 251 237 234 239 235 244 252 257 258 258 259 260 259 258 253 248 248 250 253 254 252 253 253 250 248 250 250 250 252 255 258 260
243 241 248 251 258 248 248 233 231 231 226 248 240 226 228 240 241 241 249 255 256 254 255 257 260 259 257 253 247 247 248 250 252 253 252 254 255 254 256 258 258 260 260 261
243 236 247 249 252 258 254 243 242 249 240 229 217 243 228 230 236 245 249 250 253 250 252 252 254 255 257 255 255 250 249 249 249 251 252 251 252 255 256 255 256 259 261 260
256 249 240 251 259 256 264 255 256 257 259 257 247 231 246 240 232 211 242 257 253 248 249 251 252 253 254 255 257 256 251 249 248 248 249 251 252 253 253 256 258 257 256 259
254 257 252 246 261 263 256 254 239 253 254 263 254 261 268 256 244 250 241 243 258 254 250 247 251 252 253 255 257 257 255 254 250 247 245 246 249 251 252 253 254 257 258 257
265 262 256 258 254 258 254 256 250 249 248 253 254 256 258 262 264 261 264 270 268 267 266 261 256 256 255 256 256 257 256 256 254 250 246 245 244 246 249 251 253 254 256 257
262 255 250 242 243 244 251 259 255 256 255 251 253 258 260 258 263 263 261 267 270 269 267 267 264 262 261 259 259 260 258 257 257 257 253 248 246 247 247 246 248 252 254 256
263 260 254 247 239 245 252 259 262 259 253 249 249 246 251 251 258 257 264 268 270 269 269 270 269 267 267 265 263 260 258 257 257 256 255 253 249 248 247 246 246 248 252 255
258 257 254 256 257 256 254 254 257 257 257 252 245 242 239 249 260 266 267 265 267 267 267 268 268 268 266 265 263 262 261 260 258 255 251 249 249 247 250 249 249 247 250 253
264 259 264 265 263 264 266 264 253 253 251 251 250 249 248 250 256 260 265 268 271 272 268 267 266 268 269 267 268 267 268 266 262 257 252 250 248 250 254 250 249 245 245 249
266 262 262 265 268 270 263 265 256 253 249 245 252 247 254 248 257 254 257 263 270 272 272 272 272 274 274 273 273 272 272 272 271 269 264 258 253 251 253 249 247 243 242 244
262 257 259 262 266 260 264 266 241 234 238 236 240 241 247 249 256 262 265 272 277 276 276 275 275 275 276 274 274 274 272 272 271 271 268 267 267 261 255 252 254 247 236 238
268 257 252 251 258 242 225 250 243 243 245 252 244 248 255 260 264 267 275 271 271 276 278 279 280 280 278 276 275 274 274 274 273 270 268 269 267 266 267 261 257 253 251 244
271 268 254 232 229 240 237 237 237 240 241 256 252 256 261 266 265 263 263 274 284 288 289 289 288 286 283 281 278 275 271 269 270 271 270 268 269 267 264 264 268 265 263 260
279 270 243 237 244 245 247 243 240 249 250 253 264 267 268 268 262 265 273 280 285 289 287 286 286 286 284 282 278 272 269 268 271 271 269 269 269 267 264 262 260 265 264 260
246 260 244 252 246 243 246 249 253 259 265 271 270 270 269 270 273 277 281 283 286 288 290 292 291 288 287 288 285 279 273 272 274 274 272 270 270 268 263 260 257 255 259 260
253 231 232 225 244 244 251 253 260 267 270 270 273 275 275 277 280 282 284 289 293 296 295 292 291 288 287 287 284 279 275 275 277 277 275 270 267 266 263 258 256 253 253 256
239 236 238 243 247 252 256 261 264 263 266 271 275 278 281 284 287 289 291 293 292 291 293 291 290 285 282 280 280 281 283 284 289 289 284 276 265 262 260 256 254 253 252 255
239 233 244 247 249 251 257 262 265 272 278 282 286 288 290 290 291 291 293 293 293 293 291 288 289 284 284 280 280 282 287 291 294 295 294 291 281 262 255 254 250 249 250 249
Height
5823 5824 5825 5829 5830 5833 5835 5834 5838 5839 5839 5839 5844 5845 5847 5846 5847 5850 5851 5852 5853 5851 5851 5856 5858 5860 5862 5865 5868 5870 5873 5875 5877 5879 5880 5881 5883 5885 5884 5884 5884 5884 5886 5887
5811 5813 5818 5819 5820 5820 5824 5825 5830 5831 5830 5830 5835 5836 5839 5840 5840 5841 5843 5843 5845 5846 5845 5850 5851 5852 5853 5856 5859 5862 5865 5868 5870 5872 5873 5875 5875 5877 5877 5877 5877 5877 5875 5873
5802 5806 5806 5807 5808 5810 5814 5817 5820 5822 5821 5822 5826 5828 5829 5832 5830 5831 5834 5835 5838 5838 5839 5841 5842 5843 5845 5848 5850 5853 5856 5859 5862 5864 5866 5867 5867 5869 5870 5871 5868 5871 5872 5871
5792 5795 5794 5797 5799 5800 5803 5807 5809 5811 5813 5814 5816 5820 5820 5820 5819 5822 5824 5826 5828 5832 5831 5833 5833 5835 5837 5839 5841 5843 5847 5849 5852 5855 5857 5860 5861 5860 5861 5865 5861 5863 5867 5869
5786 5786 5787 5787 5789 5791 5793 5797 5797 5800 5802 5805 5810 5810 5819 5812 5808 5808 5815 5817 5819 5820 5822 5824 5825 5829 5829 5830 5832 5835 5837 5839 5842 5845 5848 5850 5853 5852 5853 5854 5855 5856 5857 5856
5776 5780 5779 5779 5780 5781 5782 5785 5789 5788 5793 5793 5801 5805 5809 5811 5802 5796 5800 5806 5808 5809 5811 5814 5815 5819 5821 5822 5823 5825 5827 5829 5831 5834 5836 5839 5841 5844 5844 5845 5847 5848 5849 5850
5769 5769 5767 5768 5771 5773 5774 5777 5781 5783 5785 5785 5794 5796 5803 5795 5794 5786 5788 5796 5798 5798 5798 5801 5805 5807 5811 5812 5813 5815 5817 5818 5821 5823 5825 5827 5830 5832 5834 5835 5838 5839 5839 5841
5766 5764 5761 5755 5761 5765 5769 5770 5774 5777 5781 5785 5786 5784 5785 5781 5784 5782 5779 5782 5788 5788 5788 5789 5793 5795 5799 5802 5803 5805 5806 5807 5809 5811 5814 5816 5818 5821 5822 5824 5826 5828 5829 5831
5754 5755 5749 5747 5752 5754 5759 5758 5764 5759 5765 5769 5774 5771 5769 5772 5774 5776 5773 5772 5776 5778 5778 5779 5780 5782 5784 5788 5791 5793 5795 5796 5798 5799 5802 5804 5806 5808 5810 5812 5815 5815 5818 5818
5740 5741 5740 5739 5742 5746 5747 5752 5752 5754 5754 5756 5761 5761 5758 5756 5760 5760 5759 5761 5762 5767 5767 5768 5768 5771 5771 5774 5776 5782 5784 5785 5787 5788 5789 5791 5793 5796 5798 5800 5803 5804 5806 5808
5728 5730 5736 5733 5734 5740 5739 5741 5742 5745 5743 5748 5750 5752 5742 5748 5753 5737 5743 5751 5753 5754 5754 5756 5758 5759 5759 5761 5763 5767 5770 5771 5774 5776 5778 5779 5781 5782 5785 5787 5790 5792 5796 5797
5716 5717 5720 5725 5724 5726 5731 5733 5732 5733 5738 5738 5740 5744 5734 5738 5739 5736 5736 5737 5742 5742 5743 5743 5745 5746 5748 5748 5750 5751 5754 5755 5759 5761 5763 5766 5768 5769 5771 5773 5775 5778 5781 5785
5708 5710 5710 5713 5718 5715 5717 5719 5721 5723 5725 5726 5728 5731 5728 5727 5726 5727 5727 5728 5730 5732 5731 5732 5734 5734 5736 5737 5738 5738 5739 5739 5742 5746 5747 5750 5753 5755 5757 5759 5762 5765 5767 5768
5701 5703 5704 5706 5707 5705 5704 5706 5709 5710 5712 5716 5717 5720 5716 5715 5715 5713 5716 5718 5718 5718 5718 5718 5721 5721 5722 5724 5725 5726 5726 5727 5728 5729 5732 5734 5737 5740 5743 5744 5747 5749 5752 5755
5694 5695 5695 5696 5697 5697 5698 5699 5699 5700 5702 5703 5708 5706 5703 5702 5701 5701 5704 5707 5706 5705 5704 5704 5706 5706 5707 5707 5709 5709 5711 5712 5713 5714 5716 5718 5721 5724 5725 5728 5731 5733 5736 5739
5686 5688 5687 5688 5689 5688 5688 5688 5689 5690 5691 5692 5693 5696 5695 5692 5693 5693 5693 5691 5691 5691 5691 5691 5690 5690 5691 5691 5691 5692 5692 5694 5697 5698 5700 5701 5702 5707 5708 5711 5714 5718 5721 5725
5678 5680 5680 5681 5680 5679 5680 5680 5678 5679 5680 5682 5683 5685 5682 5682 5683 5683 5682 5682 5681 5681 5681 5680 5679 5679 5678 5678 5678 5677 5677 5677 5678 5680 5682 5684 5684 5688 5694 5695 5697 5701 5705 5709
5671 5672 5673 5673 5673 5672 5673 5669 5670 5670 5672 5674 5674 5674 5675 5675 5676 5676 5676 5676 5675 5674 5674 5673 5672 5670 5669 5668 5666 5666 5666 5665 5665 5665 5664 5666 5667 5670 5673 5677 5681 5684 5689 5695
5665 5665 5666 5666 5666 5668 5669 5665 5665 5665 5667 5668 5669 5669 5669 5670 5671 5669 5670 5669 5668 5666 5664 5663 5662 5660 5659 5657 5655 5654 5653 5652 5652 5651 5651 5651 5651 5652 5655 5658 5660 5665 5669 5675
5658 5659 5660 5660 5661 5661 5661 5661 5662 5663 5664 5663 5664 5664 5664 5664 5664 5662 5661 5661 5660 5658 5656 5654 5653 5651 5648 5646 5645 5643 5642 5640 5638 5637 5637 5636 5637 5639 5640 5641 5644 5646 5648 5653
5653 5653 5653 5654 5656 5657 5655 5657 5659 5661 5663 5658 5659 5659 5658 5658 5657 5656 5654 5652 5650 5648 5646 5644 5641 5639 5636 5634 5632 5630 5629 5627 5625 5624 5623 5623 5622 5624 5626 5629 5629 5631 5631 5634
5649 5649 5649 5651 5652 5654 5652 5653 5655 5655 5654 5654 5653 5652 5651 5649 5648 5647 5646 5644 5642 5639 5636 5633 5629 5625 5621 5618 5616 5614 5613 5612 5611 5610 5610 5609 5609 5609 5610 5614 5616 5616 5617 5617
5647 5646 5648 5649 5648 5648 5648 5648 5649 5648 5648 5647 5646 5644 5643 5643 5642 5639 5637 5633 5630 5627 5623 5618 5613 5610 5606 5602 5599 5598 5597 5596 5596 5596 5596 5595 5594 5595 5596 5599 5601 5603 5604 5606
5640 5641 5643 5644 5644 5643 5644 5643 5643 5643 5642 5640 5639 5638 5636 5634 5632 5629 5626 5622 5617 5613 5608 5604 5600 5596 5594 5590 5589 5587 5587 5585 5584 5583 5582 5581 5580 5580 5581 5583 5586 5588 5590 5593
5634 5637 5637 5638 5638 5638 5638 5638 5638 5637 5636 5634 5632 5630 5627 5624 5621 5617 5613 5610 5605 5602 5598 5593 5589 5586 5583 5581 5580 5579 5577 5575 5573 5570 5567 5565 5565 5566 5568 5570 5573 5574 5576 5580
5629 5631 5632 5633 5633 5633 5633 5633 5632 5631 5628 5626 5623 5621 5617 5613 5610 5606 5602 5598 5595 5592 5587 5583 5580 5577 5576 5574 5572 5570 5568 5566 5562 5559 5557 5555 5553 5553 5554 5556 5561 5562 5565 5568